This is the latest recevied weather packets stored in our database for station/object KF0FSA. If no packets are shown the sender has not sent any weather packets the latest 10 day(s).
| Time | Temp. | Humidity | Pressure | Rain* | Wind** | Luminosity | Snow |
|---|---|---|---|---|---|---|---|
| 1777919717 | 17.22° C | 35% | 952.2 hPa | 0 mm | - | 760 W/m² | - |
| 1777919415 | 17.22° C | 35% | 952 hPa | 0 mm | - | 993 W/m² | - |
| 1777919114 | 17.22° C | 35% | 951.9 hPa | 0 mm | - | 959 W/m² | - |
| 1777918815 | 17.22° C | 36% | 951.9 hPa | 0 mm | - | 571 W/m² | - |
| 1777918511 | 17.78° C | 36% | 951.8 hPa | 0 mm | - | 860 W/m² | - |
| 1777918211 | 17.78° C | 34% | 951.6 hPa | 0 mm | - | 846 W/m² | - |
| 1777917911 | 18.33° C | 33% | 951.5 hPa | 0 mm | - | 714 W/m² | - |
| 1777917611 | 17.78° C | 34% | 951.4 hPa | 0 mm | - | 958 W/m² | - |
| 1777917311 | 17.78° C | 32% | 951.3 hPa | 0 mm | - | 967 W/m² | - |
| 1777917011 | 17.78° C | 33% | 951.5 hPa | 0 mm | - | 573 W/m² | - |
| 1777916712 | 17.78° C | 33% | 951.3 hPa | 0 mm | - | 799 W/m² | - |
| 1777916411 | 17.78° C | 32% | 951.3 hPa | 0 mm | - | 824 W/m² | - |
| 1777916111 | 17.78° C | 32% | 951 hPa | 0 mm | - | 953 W/m² | - |
| 1777915811 | 17.78° C | 32% | 951.1 hPa | 0 mm | - | 942 W/m² | - |
| 1777915636 | 17.78° C | 32% | 951.1 hPa | 0 mm | - | 927 W/m² | - |
| 1777915209 | 17.22° C | 34% | 951.1 hPa | 0 mm | - | 899 W/m² | - |
| 1777914909 | 17.22° C | 33% | 951.1 hPa | 0 mm | - | 505 W/m² | - |
| 1777914609 | 17.22° C | 33% | 951.2 hPa | 0 mm | - | 822 W/m² | - |
| 1777914307 | 17.22° C | 33% | 951.1 hPa | 0 mm | - | 796 W/m² | - |
| 1777914003 | 17.22° C | 31% | 951 hPa | 0 mm | - | 751 W/m² | - |
| 1777913703 | 17.22° C | 33% | 951 hPa | 0 mm | - | 631 W/m² | - |
| 1777913400 | 17.22° C | 31% | 950.8 hPa | 0 mm | - | 808 W/m² | - |
| 1777913101 | 17.22° C | 34% | 950.7 hPa | 0 mm | - | 833 W/m² | - |
| 1777912797 | 17.22° C | 34% | 950.8 hPa | 0 mm | - | 829 W/m² | - |
| 1777912498 | 17.22° C | 34% | 950.8 hPa | 0 mm | - | 654 W/m² | - |
* Rain latest hour (hover to see other rain measurements)
** Current wind speed in m/s (hover to see current wind gust speed)